Regional Weather Roundup
Issued by NWS

Home | Current Version | Previous Version | Graphics & Text | Print | Product List | Glossary On
Versions: 1 2 3 4 5 6 7 8 9 10 11 12 13 14 15 16 17 18 19 20 21 22 23 24 25 26 27 28 29 30 31 32 33 34 35 36 37 38 39 40 41 42 43 44 45 46 47 48 49 50
949
ASUS44 KMEG 250910
RWRTN
TENNESSEE HOURLY STATE WEATHER ROUNDUP
NATIONAL WEATHER SERVICE MEMPHIS TN
400 AM CDT FRI MAY 25 2018

TNZ002-004-019-021-049-052-054-088>092-251000-
WEST TENNESSEE

CITY           SKY/WX    TMP DP  RH WIND       PRES   REMARKS
MEMPHIS INTL   MOCLDY    72  70  93 S3        30.00S
NWS MEMPHIS      N/A     70 N/A N/A MISG        N/A
JACKSON        FAIR      70  70 100 CALM      30.01S FOG
DYERSBURG      FAIR      72  70  93 CALM      30.01F
SOMERVILLE     CLOUDY    70  70 100 CALM      30.00S
COVINGTON      MOCLDY    72  72 100 CALM      30.01R
UNION CITY     CLOUDY    72  68  88 CALM      29.99S
BOLIVAR        CLOUDY    70  68  94 CALM      30.01R
PARIS          CLOUDY    68  66  94 CALM      30.01S
HUNTINGDON     MOCLDY    68  66  94 CALM      30.00S
LEXINGTON      MOCLDY    66  66 100 CALM      30.01S FOG
SELMER         CLOUDY    68  66  94 CALM      30.01S
$$

TNZ008-025-027-028-033-062-065-066-251000-
NORTH MIDDLE TENNESSEE

CITY           SKY/WX    TMP DP  RH WIND       PRES   REMARKS
NASHVILLE      MOCLDY    69  65  86 CALM      30.02S
DICKSON        PTSUNNY   66  63  88 CALM      30.02S
PORTLAND       PTCLDY    64  64 100 CALM      30.02F
CLARKSVILLE    FAIR      64  61  90 CALM      30.01F
SMYRNA         FAIR      67  65  93 CALM      30.03R
MURFREESBORO   MOSUNNY   68  64  88 CALM      30.01S
COOKEVILLE     MOCLDY    70  66  88 CALM      30.04S
LIVINGSTON     PTSUNNY   72  64  78 SW5       30.05S
CROSSVILLE     FAIR      67  65  93 VRB5      30.10F
ROCKWOOD       MOSUNNY   66  64  94 CALM      30.09S
$$

TNZ061-075-076-078-094-096-097-251000-
SOUTH MIDDLE TENNESSEE

CITY           SKY/WX    TMP DP  RH WIND       PRES   REMARKS
LEWISBURG      SUNNY     63  61  94 CALM      30.01F
FAYETTEVILLE   CLEAR     70  66  88 CALM      30.02S
TULLAHOMA      PTCLDY    64  63  94 CALM      30.02F
WINCHESTER     PTCLDY    72  66  83 SE5       30.03S
MCMINNVILLE    PTCLDY    72  66  83 CALM      30.04S
COLUMBIA       PTCLDY    64  64 100 CALM      30.00S
SHELBYVILLE    CLEAR     64  63  94 CALM      30.02S
$$

TNZ017-018-042-046-047-251000-
NORTHEAST TENNESSEE

CITY           SKY/WX    TMP DP  RH WIND       PRES   REMARKS
TRI CITIES     MOCLDY    64  63  96 CALM      30.11S
ELIZABETHTON     N/A     66  61  82 CALM      30.12S
GREENEVILLE    CLOUDY    70  64  83 CALM      30.10F
$$

TNZ012-013-036-069-073-074-251000-
CENTRAL EAST TENNESSEE

CITY           SKY/WX    TMP DP  RH WIND       PRES   REMARKS
KNOXVILLE      CLOUDY    72  67  84 CALM      30.06S
OAK RIDGE      MOCLDY    71  70  96 CALM      30.08S
DOWNTOWN KNOXV   N/A     68  68 100 CALM      30.07R FOG
GATLINBURG     CLEAR     66  66 100 CALM      30.07S FOG
MORRISTOWN     CLOUDY    72  66  83 NE3       30.08S
JACKSBORO      PTCLDY    66  66 100 CALM      30.11S
$$

TNZ083-085-099-251000-
SOUTHEAST TENNESSEE

CITY           SKY/WX    TMP DP  RH WIND       PRES   REMARKS
CHATTANOOGA    FAIR      72  66  81 CALM      30.05F
DAYTON         MOSUNNY   68  68 100 CALM      30.05S
$$

SKY/WX REPORTED AS FAIR MEANS FEW OR NO CLOUDS BELOW
12 THOUSAND FEET.





USA.gov is the U.S. government's official web portal to all federal, state and local government web resources and services.